Weather History for Fergus Falls, MN

Change the Weather History Date:

Saturday, July 20, 2013

  Actual Average Record
Temperature  
Mean Temperature 66 °F -  
Max Temperature 73 °F 80 °F 98 °F (1977)
Min Temperature 60 °F 57 °F 46 °F (1992)
Cooling Degree Days 2    
Growing Degree Days 16 (Base 50)    
Moisture  
Dew Point 58 °F    
Average Humidity 76    
Maximum Humidity 100    
Minimum Humidity 50    
Precipitation  
Precipitation 0.00 in - - ()
Sea Level Pressure  
Sea Level Pressure 29.95 in    
Wind  
Wind Speed 2 mph (NE)    
Max Wind Speed 9 mph    
Max Gust Speed -    
Visibility 9 miles    
Events      
Averages and records for this station are not official NWS values.
T = Trace of Precipitation, MM = Missing Value Source: NWS Daily Summary

Daily Weather History Graph

Daily Weather History Graph

Search for Another Location

Airport:

Trip Planner

Search our weather history database for the weather conditions in past years. The results will help you decide how hot, cold, wet, or windy it might be!

Date:

Astronomy

Jul. 20, 2013 Rise Set
Actual Time 5:52 AM CDT 9:08 PM CDT
Civil Twilight 5:16 AM CDT 9:44 PM CDT
Nautical Twilight 4:28 AM CDT 10:32 PM CDT
Astronomical Twilight 3:28 AM CDT 11:31 PM CDT
Moon 7:12 PM CDT 3:34 AM CDT
Length of Visible Light 16h 28m
Length of Day
15h 15m
Waxing Gibbous, 94% of the Moon is Illuminated
Jul 20
Waxing Gibbous
Jul 22
Full
Jul 29
Last Quarter
Aug 6
New
Aug 14
First Quarter

Hourly Weather History & Observations

Time (CDT) Temp. Dew Point Humidity Pressure Visibility Wind Dir Wind Speed Gust Speed Precip Events Conditions
12:13 AM 64.4 °F 62.6 °F 94% 29.90 in 10.0 mi Calm Calm - N/A   Scattered Clouds
12:33 AM 64.4 °F 62.6 °F 94% 29.90 in 10.0 mi Calm Calm - N/A   Mostly Cloudy
12:53 AM 62.6 °F 62.6 °F 100% 29.91 in 10.0 mi Calm Calm - N/A   Scattered Clouds
1:13 AM 62.6 °F 62.6 °F 100% 29.93 in 7.0 mi Calm Calm - N/A   Clear
1:33 AM 62.6 °F 62.6 °F 100% 29.92 in 5.0 mi West 3.5 mph - N/A   Clear
1:53 AM 62.6 °F 62.6 °F 100% 29.92 in 7.0 mi WSW 3.5 mph - N/A   Mostly Cloudy
2:13 AM 62.6 °F 62.6 °F 100% 29.91 in 7.0 mi SW 3.5 mph - N/A   Overcast
2:33 AM 62.6 °F 62.6 °F 100% 29.90 in 7.0 mi Calm Calm - N/A   Overcast
2:53 AM 62.6 °F 62.6 °F 100% 29.90 in 10.0 mi Calm Calm - N/A   Mostly Cloudy
3:13 AM 62.6 °F 62.6 °F 100% 29.91 in 10.0 mi West 3.5 mph - N/A   Mostly Cloudy
3:33 AM 62.6 °F 62.6 °F 100% 29.90 in 7.0 mi Calm Calm - N/A   Scattered Clouds
3:53 AM 60.8 °F 60.8 °F 100% 29.91 in 3.0 mi NNW 3.5 mph - N/A   Clear
4:13 AM 60.8 °F 60.8 °F 100% 29.92 in 5.0 mi Calm Calm - N/A   Scattered Clouds
4:33 AM 60.8 °F 60.8 °F 100% 29.93 in 7.0 mi Calm Calm - N/A   Mostly Cloudy
4:53 AM 62.6 °F 62.6 °F 100% 29.92 in 7.0 mi Calm Calm - N/A   Mostly Cloudy
5:13 AM 60.8 °F 60.8 °F 100% 29.93 in 5.0 mi Calm Calm - N/A   Mostly Cloudy
5:33 AM 60.8 °F 60.8 °F 100% 29.93 in 5.0 mi North 3.5 mph - N/A   Scattered Clouds
5:53 AM 60.8 °F 60.8 °F 100% 29.93 in 3.0 mi Calm Calm - N/A   Clear
6:13 AM 60.8 °F 60.8 °F 100% 29.93 in 2.5 mi Calm Calm - N/A   Clear
6:33 AM 62.6 °F 62.6 °F 100% 29.94 in 4.0 mi NNE 3.5 mph - N/A   Clear
6:53 AM 62.6 °F 62.6 °F 100% 29.94 in 10.0 mi ENE 3.5 mph - N/A   Scattered Clouds
7:13 AM 62.6 °F 60.8 °F 94% 29.94 in 10.0 mi ENE 6.9 mph - N/A   Scattered Clouds
7:33 AM 62.6 °F 60.8 °F 94% 29.95 in 10.0 mi East 6.9 mph - N/A   Scattered Clouds
7:53 AM 62.6 °F 60.8 °F 94% 29.96 in 10.0 mi East 4.6 mph - N/A   Scattered Clouds
8:13 AM 62.6 °F 59.0 °F 88% 29.98 in 10.0 mi ENE 5.8 mph - N/A   Clear
8:33 AM 64.4 °F 57.2 °F 77% 29.98 in 10.0 mi East 5.8 mph - N/A   Mostly Cloudy
8:53 AM 64.4 °F 55.4 °F 73% 29.99 in 10.0 mi ESE 4.6 mph - N/A   Overcast
9:13 AM 64.4 °F 55.4 °F 73% 30.00 in 10.0 mi Calm Calm - N/A   Overcast
9:33 AM 64.4 °F 55.4 °F 73% 29.99 in 10.0 mi Calm Calm - N/A   Overcast
9:53 AM 64.4 °F 55.4 °F 73% 29.99 in 10.0 mi Calm Calm - N/A   Mostly Cloudy
10:13 AM 64.4 °F 55.4 °F 73% 29.98 in 10.0 mi East 8.1 mph - N/A   Mostly Cloudy
10:34 AM 64.4 °F 55.4 °F 73% 29.98 in 10.0 mi East 6.9 mph - N/A   Scattered Clouds
10:53 AM 64.4 °F 55.4 °F 73% 29.98 in 10.0 mi East 6.9 mph - N/A   Scattered Clouds
11:13 AM 66.2 °F 55.4 °F 68% 29.99 in 10.0 mi ENE 5.8 mph - N/A   Scattered Clouds
11:33 AM 66.2 °F 55.4 °F 68% 29.98 in 10.0 mi ENE 6.9 mph - N/A   Clear
11:53 AM 69.8 °F 53.6 °F 56% 29.98 in 10.0 mi ENE 8.1 mph - N/A   Clear
12:13 PM 69.8 °F 55.4 °F 60% 29.98 in 10.0 mi NE 9.2 mph - N/A   Clear
12:33 PM 69.8 °F 55.4 °F 60% 29.97 in 10.0 mi East 4.6 mph - N/A   Clear
12:53 PM 71.6 °F 53.6 °F 53% 29.97 in 10.0 mi ENE 4.6 mph - N/A   Clear
1:13 PM 71.6 °F 53.6 °F 53% 29.96 in 10.0 mi ENE 8.1 mph - N/A   Clear
1:33 PM 71.6 °F 51.8 °F 50% 29.95 in 10.0 mi ENE 5.8 mph - N/A   Clear
1:53 PM 71.6 °F 55.4 °F 57% 29.95 in 10.0 mi North 5.8 mph - N/A   Clear
2:13 PM 73.4 °F 53.6 °F 50% 29.95 in 10.0 mi ENE 8.1 mph - N/A   Clear
2:33 PM 73.4 °F 55.4 °F 53% 29.95 in 10.0 mi NE 6.9 mph - N/A   Scattered Clouds
2:53 PM 71.6 °F 55.4 °F 57% 29.95 in 10.0 mi ENE 6.9 mph - N/A   Scattered Clouds
3:13 PM 71.6 °F 55.4 °F 57% 29.95 in 10.0 mi Calm Calm - N/A   Mostly Cloudy
3:33 PM 71.6 °F 53.6 °F 53% 29.95 in 10.0 mi East 4.6 mph - N/A   Mostly Cloudy
3:53 PM 71.6 °F 55.4 °F 57% 29.95 in 10.0 mi ENE 6.9 mph - N/A   Mostly Cloudy
4:13 PM 71.6 °F 53.6 °F 53% 29.95 in 10.0 mi ENE 5.8 mph - N/A   Overcast
4:33 PM 71.6 °F 55.4 °F 57% 29.95 in 10.0 mi ENE 3.5 mph - N/A   Overcast
4:53 PM 73.4 °F 55.4 °F 53% 29.95 in 10.0 mi NNE 3.5 mph - N/A   Overcast
5:13 PM 73.4 °F 55.4 °F 53% 29.95 in 10.0 mi Calm Calm - N/A   Overcast
5:33 PM 71.6 °F 55.4 °F 57% 29.95 in 10.0 mi ENE 3.5 mph - N/A   Mostly Cloudy
5:53 PM 71.6 °F 55.4 °F 57% 29.95 in 10.0 mi Calm Calm - N/A   Mostly Cloudy
6:13 PM 71.6 °F 55.4 °F 57% 29.94 in 10.0 mi Calm Calm - N/A   Overcast
6:33 PM 71.6 °F 55.4 °F 57% 29.94 in 10.0 mi Calm Calm - N/A   Overcast
6:53 PM 71.6 °F 55.4 °F 57% 29.94 in 10.0 mi North 3.5 mph - N/A   Mostly Cloudy
7:13 PM 71.6 °F 57.2 °F 60% 29.94 in 10.0 mi Calm Calm - N/A   Mostly Cloudy
7:33 PM 71.6 °F 55.4 °F 57% 29.94 in 10.0 mi Calm Calm - N/A   Overcast
7:53 PM 69.8 °F 57.2 °F 64% 29.94 in 10.0 mi Calm Calm - N/A   Overcast
8:13 PM 69.8 °F 59.0 °F 68% 29.94 in 10.0 mi Calm Calm - N/A   Mostly Cloudy
8:33 PM 68.0 °F 60.8 °F 78% 29.94 in 10.0 mi Calm Calm - N/A   Mostly Cloudy
8:53 PM 68.0 °F 60.8 °F 78% 29.94 in 10.0 mi Calm Calm - N/A   Mostly Cloudy
9:13 PM 66.2 °F 57.2 °F 73% 29.94 in 10.0 mi NNE 4.6 mph - N/A   Scattered Clouds
9:33 PM 66.2 °F 55.4 °F 68% 29.94 in 10.0 mi NNE 4.6 mph - N/A   Clear
9:53 PM 64.4 °F 55.4 °F 73% 29.95 in 10.0 mi NNE 3.5 mph - N/A   Clear
10:14 PM 62.6 °F 55.4 °F 77% 29.96 in 7.0 mi Calm Calm - N/A   Clear
10:33 PM 62.6 °F 55.4 °F 77% 29.96 in 7.0 mi Calm Calm - N/A   Clear
10:53 PM 62.6 °F 57.2 °F 82% 29.96 in 10.0 mi Calm Calm - N/A   Clear
11:14 PM 62.6 °F 57.2 °F 82% 29.95 in 10.0 mi Calm Calm - N/A   Clear
11:33 PM 62.6 °F 57.2 °F 82% 29.95 in 10.0 mi Calm Calm - N/A   Clear
11:53 PM 62.6 °F 55.4 °F 77% 29.95 in 10.0 mi ENE 4.6 mph - N/A   Clear